Historyczne dane pomiarowe

Dodano dane terminowe – wersja testowa.

Dane z okresu 1951-2019

Wersja bazy: 1.34 [2019-03-16, lista zmian], aktualizacja planowana na 2019-04-15

Dane meteo z obszaru Polski uzyskane na podstawie danych udostępnionych przez Instytut Meteorologii i Gospodarki Wodnej – Państwowy Instytut Badawczy.

 

Wybierz Datę:    

       

TemperaturaWilgotnośćWiatrCiśnienieOpadyŚniegCzas trwania zjawisk
 Stacja t tx tn tng RH VA  wxwx mslp ppp RRR   cm mm wxwxwxwxwxwxwx
2019-07-01 24.1 34.2 13.4--- 2.7 3.0---- 0.0------------
2019-06-30 21.8 33.3 10.4--- 0.0 1.0---- 0.0------------
2019-06-29 19.1 24.8 13.2--- 1.0 2.7---- 0.0------------
2019-06-28 16.6 22.2 10.5--- 6.0 3.3---- 0.0------------
2019-06-27 23.2 28.1 17.6--- 0.7 4.0---- 0.0------------
2019-06-26 24.6 33.2 15.2--- 0.7 0.0---- 0.0------------
2019-06-25 22.5 30.3 14.4--- 0.0 1.0---- 0.0------------
2019-06-24 19.5 22.9 15.7--- 8.0 1.0---- 0.0------------
2019-06-23 18.7 22.2 15.6--- 7.3 2.3---- 0.0------------
2019-06-22 17.9 23.4 13.5--- 6.7 1.0---- 3.2------------
2019-06-21 20.3 25.9 15.9--- 7.3 0.7---- 4.5------------
2019-06-20 20.0 25.7 14.9--- 5.0 0.0---- 0.5------------
2019-06-19 19.2 27.0 14.7--- 7.3 0.3---- 2.0------------
2019-06-18 16.0 23.0 8.3--- 3.7 1.7---- 0.6------------
2019-06-17 17.2 20.0 14.9--- 6.0 1.3---- 0.1------------
2019-06-16 21.0 29.4 15.2--- 4.7 1.0---- 25.3------------
2019-06-15 23.7 32.3 17.6--- 2.3 0.3---- 0.0------------
2019-06-14 23.4 29.7 15.7--- 4.7 1.7---- 9.3------------
2019-06-13 23.5 32.0 14.2--- 0.7 1.3---- 0.0------------
2019-06-12 23.8 30.5 16.3--- 0.0 1.3---- 0.0------------
2019-06-11 24.0 30.3 16.2--- 0.0 1.3---- 0.0------------
2019-06-10 21.7 30.3 12.2--- 0.0 1.0---- 0.0------------
2019-06-09 19.7 25.1 14.4--- 1.7 3.0---- 0.0------------
2019-06-08 19.9 28.6 11.9--- 3.0 2.0---- 0.0------------
2019-06-07 19.3 25.9 12.1--- 4.3 0.3---- 0.4------------
2019-06-06 19.0 24.4 12.0--- 1.3 1.3---- 0.0------------
2019-06-05 18.6 25.5 13.0--- 3.0 1.3---- 0.0------------
2019-06-04 18.0 24.5 11.1--- 3.0 0.0---- 0.8------------
2019-06-03 17.8 25.2 8.6--- 1.0 1.7---- 0.0------------
2019-06-02 17.2 24.5 11.2--- 3.0 0.7---- 0.0------------
2019-06-01 14.5 23.0 5.5--- 5.0 0.7---- 0.2------------
2019-05-31 12.9 19.0 7.6--- 4.7 0.7---- 0.0------------
2019-05-30 9.0 10.5 8.0--- 8.0 2.3---- 22.1------------
2019-05-29 12.0 16.0 9.0--- 8.0 1.7---- 5.6------------
2019-05-28 17.5 22.0 13.4--- 4.3 1.7---- 2.0------------
2019-05-27 16.1 23.7 7.8--- 4.3 1.0---- 0.0------------
2019-05-26 15.1 23.0 7.4--- 2.7 1.0---- 0.0------------
2019-05-25 14.0 20.9 9.3--- 3.7 1.7---- 0.0------------
2019-05-24 11.0 12.7 9.3--- 8.0 2.0---- 1.7------------
2019-05-23 10.9 12.6 9.9--- 8.0 3.3---- 36.8------------
2019-05-22 13.0 16.6 10.7--- 8.0 0.7---- 22.0------------
2019-05-21 12.3 16.7 8.2--- 8.0 0.7---- 14.4------------
2019-05-20 16.1 21.0 10.4--- 6.0 1.7---- 0.0------------
2019-05-19 15.5 23.9 6.2--- 3.0 0.3---- 5.2------------
2019-05-18 14.9 23.5 7.7--- 3.7 1.0---- 0.0------------
2019-05-17 14.7 21.3 9.2--- 6.0 0.7---- 0.0------------
2019-05-16 12.4 18.5 7.5--- 6.3 1.0---- 0.0------------
2019-05-15 6.4 8.5 3.2--- 8.0 0.3---- 8.0------------
2019-05-14 3.2 6.7 0.8--- 8.0 1.7---- 17.1------------
2019-05-13 7.7 10.6 6.3--- 8.0 2.3---- 7.7------------
2019-05-12 12.2 20.6 6.5--- 7.7 2.0---- 4.6------------
2019-05-11 13.2 19.7 7.2--- 3.0 1.0---- 0.0------------
2019-05-10 11.2 16.8 7.4--- 4.7 2.0---- 3.5------------
2019-05-09 8.7 10.6 7.5--- 8.0 2.3---- 4.1------------
2019-05-08 7.3 14.5 -0.7--- 1.7 1.7---- 0.0------------
2019-05-07 6.2 10.2 1.7--- 7.7 3.0---- 0.0------------
2019-05-06 3.7 6.0 2.2--- 8.0 2.3---- 2.3------------
2019-05-05 5.2 9.7 2.9--- 8.0 3.3---- 10.7------------
2019-05-04 8.2 14.3 3.0--- 6.7 0.7---- 1.0------------
2019-05-03 8.5 13.7 4.7--- 8.0 0.7---- 9.1------------
149.8 ms

 

Źródłem pochodzenia danych jest Instytut Meteorologii i Gospodarki Wodnej – Państwowy Instytut Badawczy. Dane Instytutu Meteorologii i Gospodarki Wodnej – Państwowego Instytutu Badawczego zostały przetworzone.

Dane źródłowe można odnaleźć na stronie https://dane.imgw.pl